Home   Weather   Pennsauken Township   Past weeks
Flag for USA

Past Weather in Pennsauken Township, New Jersey, USA — Yesterday and Last 2 Weeks

Now
50 °F

Low clouds.


Feels Like: 45 °F
Forecast: 55 / 46 °F
Wind: 15 mph from East

Location: Northeast Philadelphia Airport

Current Time: Feb 26, 2020 at 5:59:52 pm

Latest Report: Feb 26, 2020 at 5:22 pm


Visibility: 10 mi

Pressure: 29.81 "Hg

Humidity: 80%

Dew Point: 44 °F

Location of Pennsauken TownshipLocation

Past Weather in Pennsauken Township — Graph

°F

Pennsauken Township Temperature Yesterday

Maximum temperature yesterday: 51 °F (at 2:30 pm)
Minimum temperature yesterday: 48 °F (at 5:54 am)
Average temperature yesterday: 49 °F

High & Low Weather Summary for the Past Weeks

 TemperatureHumidityPressure
High63 °F (Feb 18, 2:54 pm)100% (Feb 13, 3:17 am)30.69 "Hg (Feb 13, 3:17 am)
Low14 °F (Feb 15, 6:54 am)15% (Feb 22, 3:54 pm)29.61 "Hg (Feb 13, 1:18 pm)
Average42 °F56%30.15 "Hg
* Reported Feb 11 3:54 pm — Feb 26 3:54 pm, Pennsauken Township. Weather by CustomWeather, © 2020

Note: Actual official high and low records may vary slightly from our data, if they occured in-between our weather recording intervals... More about our weather records

Pennsauken Township Weather History for the Previous 24 Hours

Scroll right to see more
 ConditionsComfort  
Time TempWeatherWind HumidityBarometerVisibility
3:54 pm
Wed, Feb 26
52 °FOvercast.13 mph77%29.85 "Hg10 mi
3:23 pm52 °FMostly cloudy.10 mph77%29.86 "Hg10 mi
2:54 pm53 °FOvercast.10 mph74%29.87 "Hg10 mi
1:54 pm53 °FOvercast.7 mph74%29.88 "Hg10 mi
12:54 pm53 °FOvercast.9 mph74%29.90 "Hg10 mi
11:54 am53 °FOvercast.10 mph74%29.93 "Hg10 mi
10:54 am52 °FOvercast.5 mph77%29.96 "Hg7 mi
9:54 am50 °FFog.3 mph86%29.96 "Hg5 mi
8:54 am49 °FFog.7 mph86%29.96 "Hg3 mi
8:35 am48 °FFog.5 mph89%29.95 "Hg2 mi
7:54 am48 °FFog.8 mph89%29.95 "Hg1 mi
6:54 am48 °FFog.5 mph89%29.93 "Hg1 mi
5:54 am48 °FFog.6 mph86%29.90 "Hg5 mi
5:03 am48 °FFog.5 mph86%29.90 "Hg5 mi
4:54 am48 °FFog.5 mph86%29.90 "Hg5 mi
4:20 am48 °FFog.3 mph89%29.90 "Hg6 mi
4:03 am47 °FFog.6 mph90%29.90 "Hg5 mi
3:54 am47 °FFog.7 mph90%29.89 "Hg5 mi
2:54 am47 °FFog.7 mph90%29.90 "Hg4 mi
2:12 am48 °FFog.3 mph89%29.91 "Hg2 mi
2:05 am47 °FFog.5 mph93%29.90 "Hg1 mi
1:30 am48 °FFog.5 mph89%29.91 "Hg2 mi
12:54 am48 °FFog.5 mph89%29.90 "Hg1 mi
11:54 pm
Tue, Feb 25
48 °FFog.No wind89%29.90 "Hg2 mi
10:54 pm49 °FLow clouds.3 mph86%29.89 "Hg7 mi
10:21 pm49 °FLow clouds.7 mph86%29.88 "Hg7 mi
9:54 pm49 °FOvercast.6 mph86%29.88 "Hg9 mi
9:37 pm49 °FOvercast.6 mph86%29.89 "Hg9 mi
8:54 pm49 °FMostly cloudy.6 mph86%29.88 "Hg7 mi
8:30 pm49 °FMostly cloudy.7 mph86%29.88 "Hg10 mi
7:54 pm49 °FMostly cloudy.6 mph86%29.88 "Hg10 mi
6:54 pm49 °FFog.8 mph90%29.86 "Hg4 mi
6:26 pm50 °FFog.6 mph86%29.86 "Hg5 mi
6:06 pm50 °FFog.8 mph86%29.85 "Hg5 mi
5:54 pm50 °FFog.8 mph89%29.85 "Hg5 mi
5:25 pm50 °FFog.6 mph89%29.84 "Hg3 mi
5:10 pm50 °FFog.7 mph89%29.83 "Hg2 mi
Weather by CustomWeather, © 2020

See weather overview

Advertising